Location: Unspecified
(0.0000°N, 0.0000°E)
Time: 13:49:24
(UTC+00:00)

Vela 4A - Pass Details

Date: 01 December 2021
Orbit: 58523 x 164212 km, 32.1° (Epoch: 09 January)

Event Time Altitude Azimuth Distance (km) Brightness Sun altitude
Rises 18:04:13 0° 73° (ENE) 169,737 ? -3.6°
Reaches altitude 10° 18:50:11 10° 72° (ENE) 168,866 ? -14.2°
Maximum altitude 00:23:31 68° 2° (N) 164,496 ? -66.6°
Drops below altitude 10° 06:04:10 10° 295° (WNW) 166,989 ? 3.5°
Sets 06:52:43 0° 295° (WNW) 167,573 ? 14.7°
